Home   Weather   Marburg   Past weeks

Flag for Germany Past Weather in Marburg, Hesse, Germany — Yesterday and Last 2 Weeks

Now
19 °F

Clear.


Feels Like: 7 °F
Forecast: 13 / 25 °F
Wind: 13 mph from East

Location: Hessen

Current Time: Jan 18, 2017 at 9:23:43 pm

Latest Report: Jan 18, 2017 at 8:20 pm


Visibility: 10 mi

Pressure: 30.54 "Hg

Humidity: 93%

Dew Point: 18 °F

Location of MarburgLocation

Past Weather in Marburg — Graph

°F

Marburg Temperature Yesterday

Maximum temperature yesterday: 25 °F (at 1:20 pm)
Minimum temperature yesterday: 18 °F (at 8:50 pm)
Average temperature yesterday: 22 °F

High & Low Weather Summary for the Past Weeks

 TemperatureHumidityPressure
High37 °F (Jan 11, 4:50 pm)100% (Jan 3, 8:20 pm)30.63 "Hg (Jan 3, 8:20 pm)
Low12 °F (Jan 6, 6:20 am)68% (Jan 7, 12:20 pm)29.39 "Hg (Jan 12, 8:50 pm)
Average26 °F95%30.13 "Hg
* Reported Jan 3 8:20 pm — Jan 18 8:20 pm, Marburg, Weather by CustomWeather, © 2017

Note: Actual official high and low records may vary slightly from our data, if they occured in-between our weather recording intervals... More about our weather records

Advertising

Marburg Weather History for the Previous 24 Hours

Scroll right to see more
 ConditionsComfort  
Time TempWeatherWind HumidityBarometerVisibility
8:20 pm
Wed, Jan 18
19 °FClear.13 mph93%30.54 "Hg10 mi
7:50 pm19 °FClear.12 mph93%30.54 "Hg10 mi
7:20 pm19 °FClear.13 mph93%30.54 "Hg10 mi
6:50 pm19 °FClear.12 mph93%30.54 "Hg10 mi
6:20 pm19 °FClear.9 mph93%30.54 "Hg10 mi
5:50 pm21 °FClear.9 mph93%30.54 "Hg10 mi
5:20 pm21 °FClear.8 mph93%30.54 "Hg10 mi
4:50 pm21 °FSunny.9 mph93%30.54 "Hg10 mi
4:20 pm21 °FSunny.9 mph93%30.54 "Hg10 mi
3:20 pm21 °FSunny.8 mph93%30.54 "Hg10 mi
2:50 pm21 °FSunny.8 mph100%30.54 "Hg10 mi
2:20 pm21 °FSunny.7 mph100%30.54 "Hg10 mi
1:20 pm21 °FSunny.7 mph100%30.54 "Hg10 mi
12:50 pm21 °FSunny.8 mph93%30.57 "Hg10 mi
12:20 pm19 °FPassing clouds.8 mph100%30.57 "HgN/A
11:50 am19 °FPassing clouds.9 mph100%30.57 "HgN/A
11:20 am19 °FScattered clouds.9 mph93%30.57 "HgN/A
10:50 am19 °FScattered clouds.9 mph93%30.57 "HgN/A
10:20 am18 °FScattered clouds.14 mph100%30.57 "HgN/A
9:50 am18 °FScattered clouds.9 mph93%30.57 "HgN/A
9:20 am16 °FScattered clouds.9 mph100%30.57 "Hg4 mi
8:50 am16 °FScattered clouds.12 mph100%30.57 "HgN/A
8:20 am16 °FPassing clouds.12 mph100%30.54 "Hg4 mi
Weather by CustomWeather, © 2017

See weather overviewHow to use our weather pages